Location: Chatham
(39.6760°N, 89.7040°W)
Time: 07:08:39
(UTC-05:00)

Hubble Space Telescope - Visible Passes

Search period start: 26 April 2018 00:00
Search period end: 06 May 2018 00:00
Orbit: 537 x 541 km, 28.5° (Epoch: 25 April)

Date Brightness Start Highest point End Pass type
(mag) Time Alt. Az. Time Alt. Az. Time Alt. Az.
27 Apr 3.1 21:45:53 10° SW 21:46:36 13° SSW 21:46:36 13° SSW visible
28 Apr 2.8 21:35:25 10° SW 21:37:05 16° SSW 21:37:05 16° SSW visible
29 Apr 2.6 21:24:58 10° SW 21:27:28 17° S 21:27:28 17° S visible
30 Apr 2.5 21:14:36 10° SW 21:17:18 17° S 21:17:47 16° S visible
01 May 2.6 21:04:17 10° SW 21:06:52 16° S 21:08:03 14° SSE visible
02 May 2.8 20:54:01 10° SW 20:56:26 15° S 20:58:17 12° SSE visible
03 May 2.9 20:43:51 10° SW 20:45:59 14° S 20:48:08 10° SSE visible
04 May 3.0 20:33:48 10° SW 20:35:32 12° SSW 20:37:16 10° SSE visible
05 May 3.2 20:24:06 10° SSW 20:25:05 11° SSW 20:26:04 10° S visible
